This is the latest recevied weather packets stored in our database for station/object NA9VY-8. If no packets are shown the sender has not sent any weather packets the latest 10 day(s).
| Time | Temp. | Humidity | Pressure | Rain* | Wind** | Luminosity | Snow |
|---|---|---|---|---|---|---|---|
| 1777678343 | 11.67° C | 58% | 1020 hPa | 0 mm | - | 32 W/m² | - |
| 1777678038 | 11.67° C | 57% | 1020.1 hPa | 0 mm | - | 32 W/m² | - |
| 1777677736 | 12.22° C | 55% | 1020.1 hPa | 0 mm | - | 32 W/m² | - |
| 1777677433 | 12.22° C | 55% | 1020 hPa | 0 mm | - | 48 W/m² | - |
| 1777677132 | 12.22° C | 55% | 1020.2 hPa | 0 mm | - | 73 W/m² | - |
| 1777676830 | 12.22° C | 57% | 1020 hPa | 0 mm | - | 87 W/m² | - |
| 1777676528 | 12.22° C | 56% | 1020.2 hPa | 0 mm | - | 70 W/m² | - |
| 1777676225 | 12.22° C | 55% | 1020.2 hPa | 0 mm | - | 67 W/m² | - |
| 1777675922 | 12.22° C | 54% | 1020.1 hPa | 0 mm | - | 77 W/m² | - |
| 1777675618 | 12.22° C | 55% | 1020.1 hPa | 0 mm | - | 89 W/m² | - |
| 1777675316 | 12.22° C | 58% | 1019.9 hPa | 0 mm | - | 88 W/m² | - |
| 1777675012 | 12.78° C | 54% | 1020 hPa | 0 mm | - | 108 W/m² | - |
| 1777674709 | 12.78° C | 55% | 1020 hPa | 0 mm | - | 94 W/m² | - |
| 1777674405 | 12.78° C | 56% | 1019.9 hPa | 0 mm | - | 87 W/m² | - |
| 1777674103 | 13.33° C | 54% | 1020.1 hPa | 0 mm | - | 105 W/m² | - |
| 1777673799 | 12.22° C | 54% | 1019.8 hPa | 0 mm | - | 284 W/m² | - |
| 1777673496 | 12.78° C | 54% | 1020 hPa | 0 mm | - | 78 W/m² | - |
| 1777666705 | 14.44° C | 53% | 1020 hPa | 0 mm | - | 148 W/m² | - |
| 1777666402 | 14.44° C | 53% | 1020 hPa | 0 mm | - | 148 W/m² | - |
| 1777666099 | 14.44° C | 56% | 1019.8 hPa | 0 mm | - | 678 W/m² | - |
| 1777665796 | 14.44° C | 52% | 1019.9 hPa | 0 mm | - | 585 W/m² | - |
| 1777665494 | 13.89° C | 53% | 1020 hPa | 0 mm | - | 338 W/m² | - |
| 1777665189 | 13.33° C | 55% | 1020.2 hPa | 0 mm | - | 301 W/m² | - |
| 1777664885 | 13.33° C | 53% | 1020.4 hPa | 0 mm | - | 673 W/m² | - |
| 1777664581 | 13.33° C | 56% | 1020.4 hPa | 0 mm | - | 275 W/m² | - |
* Rain latest hour (hover to see other rain measurements)
** Current wind speed in m/s (hover to see current wind gust speed)